This is the latest recevied weather packets stored in our database for station/object N2ZVN. If no packets are shown the sender has not sent any weather packets the latest 10 day(s).
| Time | Temp. | Humidity | Pressure | Rain* | Wind** | Luminosity | Snow |
|---|---|---|---|---|---|---|---|
| 1788046602 | 20° C | 80% | 1020.6 hPa | 0 mm | - | 3 W/m² | - |
| 1788046298 | 20° C | 83% | 1020.7 hPa | 0 mm | - | 4 W/m² | - |
| 1788045996 | 20° C | 81% | 1020.5 hPa | 0 mm | - | 7 W/m² | - |
| 1788045691 | 20° C | 81% | 1020.6 hPa | 0 mm | - | 9 W/m² | - |
| 1788045391 | 20.56° C | 80% | 1020.8 hPa | 0 mm | - | 12 W/m² | - |
| 1788045086 | 20.56° C | 79% | 1020.9 hPa | 0 mm | - | 14 W/m² | - |
| 1788044786 | 20.56° C | 78% | 1020.8 hPa | 0 mm | - | 17 W/m² | - |
| 1788044481 | 21.11° C | 78% | 1020.9 hPa | 0 mm | - | 17 W/m² | - |
| 1788044180 | 21.11° C | 75% | 1020.8 hPa | 0 mm | - | 19 W/m² | - |
| 1788043877 | 21.67° C | 73% | 1020.8 hPa | 0 mm | - | 27 W/m² | - |
| 1788043577 | 21.67° C | 71% | 1020.9 hPa | 0 mm | - | 27 W/m² | - |
| 1788043272 | 22.22° C | 72% | 1021 hPa | 0 mm | - | 31 W/m² | - |
| 1788042967 | 22.22° C | 68% | 1021 hPa | 0 mm | - | 33 W/m² | - |
| 1788042662 | 22.78° C | 66% | 1020.6 hPa | 0 mm | - | 40 W/m² | - |
| 1788042361 | 23.33° C | 61% | 1020.9 hPa | 0 mm | - | 40 W/m² | - |
| 1788042056 | 23.33° C | 63% | 1021 hPa | 0 mm | - | 40 W/m² | - |
| 1788041751 | 23.89° C | 63% | 1021.1 hPa | 0 mm | - | 38 W/m² | - |
| 1788041447 | 23.89° C | 56% | 1021 hPa | 0 mm | - | 35 W/m² | - |
| 1788041146 | 23.89° C | 55% | 1020.9 hPa | 0 mm | - | 45 W/m² | - |
| 1788040841 | 23.89° C | 57% | 1020.9 hPa | 0 mm | - | 53 W/m² | - |
| 1788040539 | 23.89° C | 66% | 1020.9 hPa | 0 mm | - | 55 W/m² | - |
| 1788040236 | 24.44° C | 57% | 1021 hPa | 0 mm | - | 46 W/m² | - |
| 1788039934 | 24.44° C | 54% | 1021 hPa | 0 mm | - | 51 W/m² | - |
| 1788039629 | 25° C | 53% | 1020.9 hPa | 0 mm | - | 59 W/m² | - |
| 1788039324 | 25° C | 51% | 1021.2 hPa | 0 mm | - | 55 W/m² | - |
* Rain latest hour (hover to see other rain measurements)
** Current wind speed in m/s (hover to see current wind gust speed)